QPF
0.04 0.05 0.05 0.04 0.04 0.04 0.03 0.03 0.03 0.02 0.02 0.01 0.01 0.01 0.03 0.03 0.05 0.05 0.05 0.04 0.05 0.09 0.11 0.08 0.07 0.05 0.06 0.06 0.05 0.04 0.04 0.05 0.06 0.06 0.05 0.05 0.05 0.05 0.05 0.04 0.04 0.05 0.11
0.03 0.03 0.03 0.03 0.03 0.03 0.02 0.02 0.02 0.03 0.03 0.02 0.02 0.02 0.02 0.03 0.03 0.03 0.03 0.03 0.03 0.07 0.08 0.06 0.06 0.06 0.06 0.05 0.05 0.03 0.04 0.05 0.05 0.06 0.06 0.04 0.05 0.06 0.08 0.07 0.05 0.06 0.09
0.01 0.01 0.02 0.04 0.04 0.03 0.02 0.02 0.02 0.04 0.02 0.02 0.02 0.02 0.03 0.02 0.02 0.03 0.03 0.02 0.03 0.05 0.06 0.04 0.04 0.05 0.05 0.04 0.04 0.04 0.05 0.05 0.05 0.04 0.04 0.04 0.05 0.07 0.08 0.08 0.07 0.07 0.07
0.01 0.01 0.02 0.03 0.02 0.01 0.02 0.04 0.05 0.05 0.04 0.04 0.03 0.03 0.03 0.03 0.03 0.02 0.02 0.01 0.02 0.02 0.02 0.02 0.01 0.02 0.03 0.03 0.05 0.05 0.05 0.05 0.04 0.03 0.02 0.03 0.05 0.06 0.06 0.08 0.06 0.07 0.07
0.00 0.01 0.02 0.02 0.01 0.02 0.02 0.03 0.05 0.06 0.05 0.04 0.04 0.04 0.04 0.04 0.04 0.02 0.02 0.01 0.01 0.01 0.01 0.01 0.01 0.01 0.02 0.03 0.04 0.04 0.04 0.04 0.04 0.04 0.03 0.03 0.04 0.04 0.05 0.06 0.06 0.06 0.07
0.01 0.01 0.01 0.02 0.02 0.02 0.03 0.04 0.05 0.05 0.04 0.04 0.05 0.04 0.04 0.03 0.02 0.02 0.01 0.01 0.01 0.01 0.01 0.01 0.01 0.02 0.02 0.02 0.03 0.04 0.04 0.04 0.04 0.03 0.03 0.04 0.06 0.06 0.06 0.05 0.05 0.05 0.06
0.01 0.01 0.01 0.02 0.02 0.02 0.03 0.04 0.05 0.04 0.03 0.03 0.04 0.04 0.04 0.03 0.03 0.02 0.01 0.02 0.02 0.02 0.02 0.02 0.02 0.03 0.03 0.03 0.03 0.04 0.04 0.04 0.05 0.05 0.04 0.06 0.08 0.10 0.08 0.06 0.05 0.04 0.05
0.02 0.01 0.01 0.01 0.02 0.02 0.02 0.03 0.04 0.04 0.02 0.02 0.04 0.06 0.05 0.05 0.04 0.02 0.02 0.02 0.02 0.02 0.02 0.02 0.03 0.02 0.03 0.02 0.01 0.02 0.03 0.03 0.08 0.15 0.10 0.10 0.10 0.10 0.09 0.06 0.05 0.05 0.05
0.03 0.02 0.02 0.02 0.02 0.02 0.02 0.02 0.02 0.03 0.03 0.02 0.02 0.05 0.06 0.07 0.06 0.04 0.02 0.01 0.02 0.02 0.02 0.02 0.02 0.04 0.03 0.02 0.02 0.01 0.02 0.03 0.06 0.16 0.21 0.18 0.15 0.10 0.08 0.07 0.06 0.08 0.10
0.03 0.02 0.03 0.02 0.03 0.03 0.03 0.02 0.02 0.03 0.04 0.03 0.02 0.03 0.02 0.04 0.06 0.05 0.04 0.03 0.02 0.02 0.02 0.03 0.04 0.04 0.03 0.02 0.02 0.02 0.02 0.03 0.06 0.08 0.11 0.13 0.12 0.10 0.08 0.07 0.07 0.09 0.12
0.02 0.02 0.02 0.02 0.02 0.03 0.02 0.02 0.02 0.03 0.03 0.03 0.04 0.03 0.02 0.03 0.05 0.05 0.04 0.03 0.02 0.02 0.02 0.03 0.03 0.02 0.02 0.02 0.03 0.04 0.03 0.02 0.03 0.06 0.07 0.08 0.09 0.09 0.09 0.09 0.08 0.09 0.09
0.03 0.02 0.02 0.03 0.02 0.02 0.02 0.03 0.02 0.03 0.03 0.03 0.02 0.02 0.02 0.02 0.04 0.05 0.04 0.03 0.02 0.02 0.02 0.03 0.02 0.01 0.02 0.02 0.03 0.04 0.05 0.05 0.04 0.05 0.07 0.08 0.09 0.08 0.09 0.09 0.08 0.08 0.07
0.03 0.02 0.03 0.03 0.02 0.01 0.01 0.02 0.01 0.02 0.03 0.03 0.03 0.03 0.02 0.01 0.02 0.04 0.05 0.03 0.02 0.02 0.02 0.03 0.03 0.01 0.01 0.01 0.02 0.03 0.03 0.04 0.04 0.05 0.07 0.09 0.09 0.06 0.07 0.07 0.06 0.06 0.05
0.01 0.02 0.02 0.02 0.02 0.02 0.01 0.01 0.01 0.03 0.02 0.03 0.03 0.03 0.03 0.02 0.01 0.02 0.04 0.03 0.03 0.02 0.02 0.02 0.03 0.02 0.01 0.01 0.00 0.01 0.01 0.01 0.01 0.02 0.03 0.04 0.03 0.02 0.03 0.04 0.04 0.04 0.03
0.01 0.02 0.02 0.02 0.02 0.02 0.02 0.03 0.03 0.02 0.02 0.02 0.02 0.02 0.03 0.01 0.01 0.02 0.02 0.03 0.03 0.03 0.03 0.02 0.02 0.02 0.01 0.00 0.00 0.00 0.00 0.00 0.00 0.00 0.01 0.01 0.01 0.01 0.01 0.02 0.01 0.02 0.03
0.02 0.02 0.02 0.02 0.02 0.02 0.02 0.02 0.02 0.01 0.01 0.02 0.01 0.02 0.03 0.02 0.01 0.02 0.02 0.02 0.03 0.02 0.02 0.02 0.02 0.02 0.01 0.00 0.00 0.00 0.00 0.00 0.00 0.00 0.01 0.01 0.01 0.00 0.00 0.01 0.01 0.00 0.01
0.03 0.02 0.01 0.02 0.01 0.01 0.01 0.01 0.01 0.01 0.00 0.00 0.01 0.03 0.04 0.01 0.02 0.02 0.02 0.03 0.03 0.02 0.02 0.01 0.01 0.01 0.00 0.00 0.00 0.00 0.00 0.00 0.00 0.00 0.01 0.01 0.02 0.01 0.00 0.01 0.01 0.00 0.00
0.03 0.02 0.01 0.01 0.01 0.01 0.01 0.01 0.01 0.00 0.01 0.01 0.01 0.02 0.02 0.01 0.02 0.02 0.03 0.04 0.03 0.02 0.01 0.01 0.01 0.00 0.00 0.00 0.00 0.00 0.00 0.00 0.00 0.01 0.01 0.01 0.02 0.01 0.00 0.00 0.01 0.00 0.00
0.03 0.03 0.01 0.01 0.00 0.01 0.00 0.00 0.00 0.01 0.01 0.01 0.01 0.01 0.01 0.02 0.04 0.03 0.03 0.03 0.02 0.02 0.02 0.01 0.01 0.00 0.00 0.00 0.00 0.00 0.00 0.00 0.00 0.00 0.00 0.01 0.01 0.00 0.00 0.00 0.00 0.00 0.00
0.03 0.02 0.01 0.01 0.00 0.00 0.00 0.01 0.01 0.01 0.01 0.01 0.01 0.01 0.01 0.02 0.03 0.04 0.02 0.01 0.01 0.01 0.02 0.01 0.01 0.01 0.00 0.00 0.01 0.01 0.01 0.00 0.00 0.00 0.00 0.00 0.01 0.01 0.00 0.00 0.00 0.00 0.00
0.02 0.01 0.01 0.01 0.01 0.01 0.01 0.02 0.01 0.01 0.01 0.01 0.01 0.01 0.00 0.01 0.01 0.02 0.01 0.02 0.02 0.01 0.01 0.01 0.01 0.01 0.01 0.00 0.01 0.01 0.01 0.01 0.00 0.00 0.00 0.00 0.00 0.00 0.00 0.00 0.00 0.00 0.00
0.02 0.01 0.01 0.01 0.01 0.01 0.02 0.02 0.01 0.01 0.01 0.01 0.02 0.00 0.00 0.01 0.00 0.00 0.00 0.01 0.01 0.01 0.01 0.01 0.01 0.01 0.01 0.01 0.01 0.01 0.01 0.01 0.01 0.01 0.00 0.00 0.00 0.00 0.00 0.00 0.00 0.00 0.00
0.02 0.02 0.01 0.01 0.02 0.02 0.01 0.01 0.02 0.01 0.01 0.02 0.02 0.01 0.01 0.01 0.00 0.00 0.00 0.00 0.00 0.00 0.00 0.01 0.02 0.02 0.02 0.02 0.02 0.02 0.02 0.02 0.01 0.01 0.01 0.01 0.00 0.00 0.00 0.00 0.00 0.00 0.00
0.02 0.02 0.02 0.02 0.02 0.01 0.01 0.01 0.01 0.01 0.01 0.02 0.02 0.02 0.01 0.01 0.01 0.00 0.00 0.00 0.00 0.00 0.00 0.00 0.01 0.01 0.01 0.02 0.01 0.01 0.02 0.03 0.02 0.01 0.01 0.01 0.01 0.00 0.00 0.00 0.00 0.00 0.00
0.02 0.01 0.02 0.02 0.02 0.01 0.01 0.01 0.01 0.01 0.02 0.01 0.01 0.02 0.01 0.00 0.00 0.00 0.00 0.00 0.00 0.01 0.00 0.00 0.00 0.01 0.01 0.01 0.00 0.00 0.01 0.02 0.02 0.02 0.01 0.01 0.01 0.01 0.00 0.01 0.00 0.00 0.00
0.02 0.02 0.02 0.01 0.01 0.01 0.01 0.00 0.00 0.01 0.02 0.01 0.01 0.01 0.01 0.01 0.00 0.00 0.00 0.00 0.01 0.01 0.00 0.00 0.00 0.00 0.01 0.01 0.01 0.00 0.01 0.01 0.02 0.01 0.01 0.01 0.01 0.00 0.00 0.00 0.00 0.00 0.00
MSLP
1014.55 1014.51 1014.43 1014.33 1014.23 1014.17 1014.15 1014.20 1014.31 1014.46 1014.63 1014.82 1015.01 1015.19 1015.39 1015.60 1015.83 1016.10 1016.37 1016.64 1016.89 1017.08 1017.19 1017.22 1017.16 1017.03 1016.85 1016.64 1016.44 1016.25 1016.09 1015.94 1015.81 1015.68 1015.52 1015.33 1015.09 1014.79 1014.44 1014.03 1013.56 1013.05 1012.49
1014.77 1014.69 1014.58 1014.47 1014.38 1014.34 1014.37 1014.46 1014.62 1014.82 1015.04 1015.26 1015.47 1015.68 1015.87 1016.08 1016.30 1016.53 1016.78 1017.02 1017.24 1017.42 1017.52 1017.55 1017.49 1017.36 1017.18 1016.97 1016.75 1016.54 1016.35 1016.18 1016.02 1015.86 1015.69 1015.48 1015.23 1014.92 1014.55 1014.12 1013.63 1013.09 1012.50
1014.97 1014.86 1014.74 1014.64 1014.59 1014.60 1014.69 1014.85 1015.07 1015.32 1015.58 1015.83 1016.06 1016.27 1016.45 1016.63 1016.81 1017.00 1017.20 1017.40 1017.58 1017.72 1017.81 1017.84 1017.79 1017.68 1017.51 1017.31 1017.09 1016.88 1016.67 1016.48 1016.29 1016.11 1015.91 1015.68 1015.41 1015.09 1014.70 1014.26 1013.75 1013.19 1012.58
1015.11 1014.99 1014.88 1014.82 1014.82 1014.90 1015.06 1015.29 1015.58 1015.88 1016.18 1016.46 1016.69 1016.89 1017.06 1017.20 1017.33 1017.47 1017.61 1017.75 1017.89 1018.00 1018.07 1018.10 1018.07 1017.98 1017.84 1017.66 1017.46 1017.25 1017.04 1016.83 1016.63 1016.41 1016.18 1015.93 1015.63 1015.29 1014.90 1014.44 1013.93 1013.37 1012.75
1015.18 1015.06 1014.98 1014.96 1015.03 1015.19 1015.43 1015.73 1016.06 1016.41 1016.74 1017.03 1017.27 1017.46 1017.61 1017.72 1017.82 1017.91 1018.00 1018.10 1018.19 1018.27 1018.33 1018.35 1018.34 1018.27 1018.16 1018.02 1017.85 1017.65 1017.45 1017.23 1017.00 1016.76 1016.51 1016.22 1015.90 1015.54 1015.14 1014.68 1014.18 1013.62 1013.01
1015.19 1015.08 1015.04 1015.08 1015.21 1015.43 1015.73 1016.09 1016.46 1016.84 1017.18 1017.48 1017.72 1017.91 1018.06 1018.16 1018.24 1018.31 1018.38 1018.45 1018.51 1018.57 1018.62 1018.64 1018.64 1018.59 1018.52 1018.40 1018.26 1018.08 1017.88 1017.66 1017.42 1017.16 1016.87 1016.56 1016.22 1015.85 1015.44 1014.99 1014.49 1013.95 1013.35
1015.20 1015.11 1015.10 1015.18 1015.36 1015.63 1015.97 1016.34 1016.73 1017.11 1017.46 1017.76 1018.01 1018.21 1018.37 1018.49 1018.59 1018.67 1018.75 1018.81 1018.87 1018.92 1018.97 1018.99 1018.99 1018.97 1018.91 1018.82 1018.70 1018.54 1018.35 1018.13 1017.88 1017.60 1017.29 1016.96 1016.60 1016.22 1015.80 1015.36 1014.88 1014.36 1013.79
1015.26 1015.19 1015.20 1015.31 1015.51 1015.79 1016.13 1016.50 1016.87 1017.23 1017.57 1017.87 1018.12 1018.35 1018.55 1018.71 1018.86 1018.99 1019.10 1019.19 1019.27 1019.33 1019.37 1019.40 1019.41 1019.40 1019.35 1019.28 1019.17 1019.03 1018.85 1018.63 1018.37 1018.08 1017.76 1017.41 1017.04 1016.65 1016.24 1015.81 1015.35 1014.86 1014.32
1015.43 1015.37 1015.39 1015.51 1015.70 1015.96 1016.26 1016.59 1016.92 1017.23 1017.54 1017.82 1018.09 1018.34 1018.59 1018.82 1019.04 1019.23 1019.41 1019.55 1019.67 1019.75 1019.82 1019.86 1019.87 1019.87 1019.83 1019.78 1019.68 1019.55 1019.38 1019.16 1018.91 1018.61 1018.28 1017.93 1017.56 1017.17 1016.76 1016.35 1015.91 1015.45 1014.94
1015.73 1015.68 1015.70 1015.79 1015.95 1016.16 1016.40 1016.66 1016.91 1017.17 1017.42 1017.68 1017.95 1018.23 1018.52 1018.82 1019.12 1019.39 1019.64 1019.85 1020.02 1020.14 1020.23 1020.29 1020.33 1020.34 1020.32 1020.28 1020.21 1020.09 1019.94 1019.73 1019.48 1019.19 1018.87 1018.51 1018.14 1017.76 1017.36 1016.96 1016.55 1016.12 1015.65
1016.14 1016.09 1016.10 1016.16 1016.27 1016.42 1016.58 1016.75 1016.91 1017.09 1017.28 1017.51 1017.76 1018.05 1018.38 1018.74 1019.10 1019.44 1019.76 1020.03 1020.26 1020.43 1020.57 1020.66 1020.72 1020.76 1020.78 1020.77 1020.72 1020.64 1020.51 1020.33 1020.10 1019.82 1019.50 1019.16 1018.79 1018.42 1018.04 1017.65 1017.26 1016.86 1016.42
1016.60 1016.55 1016.54 1016.58 1016.64 1016.71 1016.80 1016.88 1016.96 1017.06 1017.19 1017.36 1017.58 1017.87 1018.21 1018.59 1018.99 1019.39 1019.76 1020.08 1020.36 1020.58 1020.76 1020.90 1021.01 1021.10 1021.16 1021.20 1021.20 1021.16 1021.07 1020.93 1020.73 1020.48 1020.19 1019.86 1019.51 1019.14 1018.78 1018.41 1018.04 1017.66 1017.26
1017.02 1016.98 1016.97 1016.98 1017.00 1017.03 1017.05 1017.06 1017.08 1017.11 1017.17 1017.29 1017.47 1017.73 1018.05 1018.42 1018.83 1019.24 1019.63 1019.99 1020.31 1020.58 1020.81 1021.00 1021.17 1021.32 1021.45 1021.55 1021.63 1021.65 1021.62 1021.54 1021.38 1021.17 1020.90 1020.60 1020.27 1019.92 1019.57 1019.22 1018.87 1018.51 1018.13
1017.35 1017.32 1017.31 1017.31 1017.32 1017.32 1017.31 1017.29 1017.26 1017.24 1017.26 1017.32 1017.46 1017.67 1017.95 1018.28 1018.66 1019.05 1019.44 1019.81 1020.14 1020.45 1020.72 1020.98 1021.21 1021.44 1021.64 1021.83 1021.98 1022.09 1022.14 1022.11 1022.02 1021.86 1021.64 1021.37 1021.07 1020.75 1020.41 1020.08 1019.74 1019.40 1019.04
1017.53 1017.52 1017.52 1017.54 1017.55 1017.56 1017.56 1017.54 1017.50 1017.47 1017.45 1017.48 1017.57 1017.72 1017.94 1018.21 1018.53 1018.88 1019.24 1019.59 1019.92 1020.25 1020.56 1020.87 1021.17 1021.47 1021.76 1022.03 1022.27 1022.46 1022.59 1022.65 1022.63 1022.54 1022.37 1022.15 1021.88 1021.59 1021.28 1020.96 1020.64 1020.31 1019.97
1017.59 1017.59 1017.61 1017.66 1017.71 1017.75 1017.79 1017.80 1017.79 1017.77 1017.75 1017.76 1017.80 1017.90 1018.05 1018.26 1018.51 1018.79 1019.09 1019.41 1019.73 1020.06 1020.39 1020.74 1021.09 1021.46 1021.82 1022.17 1022.49 1022.77 1022.98 1023.12 1023.18 1023.16 1023.07 1022.91 1022.69 1022.44 1022.16 1021.86 1021.55 1021.24 1020.91
1017.56 1017.57 1017.62 1017.71 1017.81 1017.91 1018.00 1018.07 1018.10 1018.12 1018.12 1018.12 1018.14 1018.20 1018.29 1018.43 1018.60 1018.82 1019.07 1019.34 1019.63 1019.95 1020.29 1020.65 1021.03 1021.44 1021.85 1022.26 1022.64 1022.99 1023.28 1023.51 1023.65 1023.72 1023.70 1023.61 1023.47 1023.27 1023.03 1022.76 1022.47 1022.17 1021.85
1017.54 1017.56 1017.63 1017.75 1017.90 1018.06 1018.21 1018.34 1018.43 1018.49 1018.52 1018.53 1018.54 1018.56 1018.61 1018.69 1018.81 1018.97 1019.16 1019.39 1019.66 1019.95 1020.28 1020.63 1021.02 1021.44 1021.87 1022.30 1022.72 1023.12 1023.48 1023.78 1024.00 1024.16 1024.24 1024.24 1024.17 1024.04 1023.86 1023.63 1023.37 1023.08 1022.78
1017.60 1017.63 1017.71 1017.86 1018.04 1018.24 1018.44 1018.62 1018.75 1018.84 1018.90 1018.92 1018.92 1018.93 1018.95 1019.00 1019.08 1019.20 1019.36 1019.56 1019.79 1020.06 1020.36 1020.69 1021.06 1021.45 1021.87 1022.29 1022.73 1023.15 1023.55 1023.91 1024.22 1024.46 1024.64 1024.74 1024.77 1024.73 1024.62 1024.45 1024.23 1023.96 1023.67
1017.79 1017.82 1017.92 1018.07 1018.27 1018.48 1018.70 1018.89 1019.04 1019.15 1019.21 1019.24 1019.25 1019.25 1019.26 1019.29 1019.36 1019.47 1019.61 1019.79 1020.00 1020.23 1020.50 1020.79 1021.11 1021.46 1021.83 1022.22 1022.63 1023.05 1023.47 1023.88 1024.26 1024.60 1024.88 1025.09 1025.23 1025.29 1025.26 1025.17 1025.00 1024.77 1024.50
1018.12 1018.16 1018.25 1018.40 1018.58 1018.78 1018.98 1019.15 1019.29 1019.38 1019.43 1019.45 1019.46 1019.46 1019.47 1019.51 1019.58 1019.69 1019.84 1020.01 1020.21 1020.42 1020.65 1020.90 1021.16 1021.43 1021.74 1022.07 1022.44 1022.84 1023.26 1023.69 1024.13 1024.55 1024.93 1025.25 1025.50 1025.67 1025.75 1025.74 1025.65 1025.47 1025.24
1018.54 1018.59 1018.67 1018.80 1018.95 1019.10 1019.25 1019.37 1019.46 1019.52 1019.54 1019.54 1019.53 1019.53 1019.56 1019.61 1019.70 1019.83 1019.99 1020.18 1020.37 1020.57 1020.76 1020.96 1021.15 1021.36 1021.59 1021.85 1022.15 1022.51 1022.91 1023.35 1023.83 1024.31 1024.78 1025.21 1025.58 1025.86 1026.05 1026.14 1026.12 1026.02 1025.83
1018.97 1019.03 1019.11 1019.20 1019.31 1019.40 1019.48 1019.54 1019.56 1019.56 1019.54 1019.51 1019.49 1019.49 1019.52 1019.60 1019.71 1019.87 1020.05 1020.25 1020.45 1020.63 1020.80 1020.95 1021.08 1021.21 1021.36 1021.55 1021.79 1022.09 1022.46 1022.89 1023.39 1023.92 1024.45 1024.97 1025.43 1025.82 1026.12 1026.31 1026.39 1026.36 1026.25
1019.29 1019.38 1019.46 1019.53 1019.59 1019.62 1019.63 1019.61 1019.57 1019.51 1019.44 1019.39 1019.35 1019.35 1019.39 1019.48 1019.63 1019.80 1020.01 1020.22 1020.42 1020.60 1020.74 1020.85 1020.94 1021.01 1021.10 1021.21 1021.38 1021.63 1021.95 1022.37 1022.85 1023.40 1023.97 1024.55 1025.08 1025.56 1025.95 1026.24 1026.41 1026.48 1026.46
1019.44 1019.56 1019.64 1019.70 1019.71 1019.70 1019.65 1019.58 1019.49 1019.39 1019.29 1019.21 1019.17 1019.16 1019.22 1019.32 1019.47 1019.67 1019.88 1020.09 1020.29 1020.46 1020.59 1020.68 1020.73 1020.76 1020.80 1020.87 1020.98 1021.17 1021.45 1021.82 1022.29 1022.82 1023.40 1023.99 1024.57 1025.10 1025.56 1025.93 1026.20 1026.37 1026.44
1019.37 1019.51 1019.61 1019.65 1019.65 1019.61 1019.54 1019.44 1019.32 1019.21 1019.10 1019.02 1018.98 1018.98 1019.03 1019.14 1019.29 1019.47 1019.68 1019.88 1020.07 1020.23 1020.35 1020.43 1020.47 1020.48 1020.50 1020.53 1020.62 1020.76 1021.00 1021.32 1021.74 1022.23 1022.78 1023.36 1023.95 1024.50 1025.00 1025.43 1025.78 1026.03 1026.21
Thickness
5727 5726 5725 5724 5723 5722 5723 5723 5723 5723 5723 5723 5723 5722 5721 5720 5718 5716 5715 5715 5716 5716 5716 5717 5717 5717 5718 5719 5719 5720 5721 5722 5723 5725 5727 5729 5731 5733 5734 5735 5736 5737 5740
5725 5723 5722 5721 5720 5719 5720 5720 5720 5719 5719 5718 5717 5717 5717 5716 5715 5714 5712 5711 5711 5711 5712 5712 5713 5713 5714 5714 5715 5716 5717 5718 5719 5720 5722 5724 5726 5727 5729 5730 5731 5732 5734
5723 5721 5719 5718 5717 5716 5716 5716 5716 5716 5715 5714 5712 5712 5713 5713 5712 5711 5710 5708 5707 5707 5707 5708 5708 5708 5709 5709 5710 5711 5712 5713 5714 5716 5717 5719 5721 5722 5724 5725 5726 5727 5728
5720 5719 5717 5715 5714 5714 5713 5713 5712 5710 5709 5709 5708 5708 5709 5709 5709 5708 5708 5706 5705 5704 5703 5703 5704 5704 5704 5704 5705 5707 5707 5708 5709 5711 5712 5713 5715 5717 5718 5719 5720 5722 5723
5717 5716 5714 5713 5712 5711 5710 5710 5708 5707 5705 5705 5704 5704 5705 5705 5705 5705 5705 5704 5703 5702 5700 5700 5699 5699 5699 5699 5701 5702 5703 5703 5705 5706 5707 5708 5710 5711 5712 5713 5714 5716 5718
5715 5714 5712 5711 5710 5708 5707 5706 5704 5704 5704 5703 5703 5701 5701 5701 5702 5702 5701 5701 5700 5700 5699 5697 5696 5695 5694 5694 5695 5697 5698 5699 5700 5701 5703 5704 5705 5705 5706 5707 5708 5710 5712
5713 5712 5710 5709 5707 5705 5704 5703 5702 5701 5700 5702 5698 5695 5696 5698 5698 5698 5699 5698 5697 5697 5696 5695 5693 5692 5690 5690 5690 5691 5693 5694 5696 5697 5699 5700 5701 5700 5700 5700 5702 5704 5706
5710 5710 5708 5707 5705 5703 5702 5701 5700 5698 5699 5700 5696 5691 5686 5687 5691 5696 5696 5695 5694 5693 5693 5692 5691 5689 5687 5686 5686 5686 5687 5689 5691 5692 5695 5697 5696 5694 5694 5694 5696 5697 5699
5707 5708 5707 5706 5704 5702 5700 5700 5699 5697 5695 5698 5699 5694 5686 5680 5684 5688 5691 5691 5690 5689 5689 5689 5687 5686 5684 5683 5682 5682 5683 5684 5686 5687 5689 5691 5690 5688 5688 5688 5690 5691 5692
5705 5706 5705 5705 5703 5702 5700 5700 5699 5698 5696 5693 5696 5698 5696 5693 5685 5680 5684 5687 5688 5686 5686 5685 5684 5682 5681 5680 5679 5678 5679 5679 5680 5681 5683 5683 5683 5682 5682 5683 5684 5685 5685
5703 5703 5703 5703 5702 5701 5700 5699 5698 5698 5697 5695 5694 5694 5694 5694 5693 5684 5677 5679 5681 5682 5683 5682 5680 5679 5678 5676 5675 5675 5674 5675 5675 5675 5676 5676 5677 5677 5677 5677 5678 5678 5679
5701 5702 5701 5701 5700 5699 5699 5698 5697 5697 5696 5696 5695 5694 5692 5689 5687 5686 5680 5677 5675 5677 5679 5678 5677 5676 5674 5673 5671 5670 5670 5670 5670 5670 5670 5670 5670 5670 5670 5671 5671 5671 5671
5698 5700 5701 5700 5699 5698 5697 5697 5696 5696 5696 5695 5694 5693 5693 5692 5692 5689 5683 5679 5676 5675 5675 5674 5674 5673 5671 5669 5667 5666 5666 5665 5665 5664 5664 5663 5663 5663 5663 5664 5664 5664 5664
5699 5700 5699 5698 5697 5697 5697 5696 5695 5695 5695 5694 5694 5693 5691 5691 5691 5689 5685 5679 5673 5671 5670 5669 5671 5670 5668 5666 5664 5663 5661 5661 5659 5659 5658 5657 5657 5656 5656 5656 5656 5656 5656
5700 5699 5698 5697 5697 5696 5696 5695 5693 5693 5693 5692 5692 5691 5690 5689 5689 5689 5687 5683 5676 5667 5663 5666 5666 5666 5665 5663 5661 5659 5657 5656 5655 5653 5652 5651 5650 5650 5649 5649 5648 5648 5647
5699 5698 5698 5696 5696 5696 5694 5693 5692 5692 5691 5690 5690 5689 5687 5687 5686 5686 5685 5683 5681 5674 5665 5664 5664 5664 5663 5661 5658 5656 5654 5652 5650 5649 5647 5645 5645 5644 5643 5642 5641 5641 5640
5699 5698 5697 5696 5696 5695 5693 5691 5690 5690 5689 5688 5688 5687 5685 5685 5683 5683 5682 5680 5677 5674 5665 5662 5663 5662 5660 5658 5655 5654 5651 5649 5646 5645 5642 5641 5639 5638 5637 5636 5635 5634 5633
5699 5698 5697 5696 5695 5694 5692 5691 5689 5688 5687 5686 5686 5685 5683 5683 5681 5680 5678 5676 5673 5671 5666 5659 5658 5658 5656 5655 5654 5652 5649 5646 5643 5641 5639 5637 5635 5633 5631 5630 5629 5627 5626
5697 5697 5696 5694 5693 5693 5691 5690 5688 5687 5686 5685 5684 5682 5681 5680 5677 5676 5674 5672 5671 5670 5665 5660 5656 5655 5654 5653 5650 5649 5647 5644 5641 5638 5635 5633 5631 5628 5626 5624 5623 5621 5620
5696 5694 5694 5693 5692 5691 5690 5688 5687 5685 5684 5683 5682 5680 5679 5677 5675 5673 5672 5670 5668 5665 5662 5657 5654 5651 5650 5649 5647 5643 5640 5639 5637 5635 5633 5629 5626 5623 5621 5619 5617 5615 5613
5694 5693 5691 5690 5690 5689 5687 5685 5684 5684 5682 5680 5679 5677 5676 5674 5673 5672 5670 5666 5664 5661 5657 5654 5650 5647 5645 5643 5641 5640 5637 5635 5633 5632 5629 5626 5623 5619 5616 5613 5611 5609 5606
5691 5689 5688 5687 5686 5685 5684 5683 5682 5681 5680 5678 5676 5674 5673 5671 5670 5668 5666 5664 5662 5658 5654 5651 5647 5643 5641 5641 5640 5638 5634 5631 5627 5627 5624 5621 5619 5615 5611 5609 5606 5604 5600
5687 5685 5684 5683 5681 5680 5680 5680 5679 5678 5677 5676 5674 5672 5671 5669 5667 5664 5662 5660 5658 5656 5654 5650 5645 5642 5640 5639 5637 5634 5631 5628 5623 5623 5620 5615 5614 5610 5607 5604 5601 5598 5595
5683 5682 5680 5679 5678 5677 5677 5676 5675 5674 5673 5673 5672 5670 5668 5665 5664 5662 5659 5655 5653 5651 5650 5648 5645 5642 5640 5638 5636 5633 5629 5625 5622 5619 5617 5610 5608 5605 5602 5598 5595 5592 5589
5680 5679 5678 5676 5675 5673 5673 5673 5671 5670 5669 5668 5668 5667 5665 5663 5661 5659 5655 5651 5648 5646 5645 5644 5642 5639 5637 5634 5632 5628 5624 5619 5614 5612 5611 5605 5602 5599 5596 5593 5589 5586 5583
5677 5676 5674 5673 5672 5670 5670 5669 5668 5667 5664 5663 5662 5662 5661 5659 5657 5655 5652 5649 5644 5642 5641 5639 5636 5634 5631 5629 5626 5623 5620 5615 5610 5606 5605 5601 5597 5593 5588 5587 5584 5580 5576